Location: Buch
(50.1863°N, 11.0141°E)
Time: 13:08:27
(UTC+00:00)

Cosmos 1726 - Pass Details

Date: 18 January 2020
Orbit: 483 x 499 km, 82.5° (Epoch: 27 February)

Event Time Altitude Azimuth Distance (km) Brightness Sun altitude
Rises 05:43:46 0° 198° (SSW) 2,562 5.7 -13.0°
Reaches altitude 10° 05:45:54 10° 202° (SSW) 1,683 4.7 -12.7°
Maximum altitude 05:49:32 58° 283° (WNW) 580 2.1 -12.1°
Drops below altitude 10° 05:53:11 10° 3° (N) 1,688 4.6 -11.6°
Sets 05:55:19 0° 7° (N) 2,572 5.6 -11.2°
